GPS BIIF-4 (PRN 27)

Last updated on Sat Nov 15 2025 00:03:18 GMT+0000 (Coordinated Universal Time)

1 39166U 13023A 25318.29633698 -.00000065 00000+0 00000+0 0 9999 2 39166 54.6766 277.7239 0136178 48.3361 312.8056 2.00565253 91574
UTC large
Height (km)
Speed (km/s)
/
Latitude / Longitude
Inclination (degrees)
Orbital Period (minutes)
Azimuth
Elevation
Range (km)
Doppler Factor

Next 0 passes for location: London (51.5072 / 0.1276)

Sorry there are no passes over London.